Flag for France Weather past 2 weeks in Royan, France

Now
77 °F

Passing clouds.


Feels Like: 79 °F
Forecast: 63 / 77 °F
Wind: 9 mph from Northwest

Location: Cognac Airport

Current Time: Jul 30, 2014 at 1:35:08 PM

Latest Report: Jul 30, 2014 at 1:00 PM


Visibility: N/A

Pressure: 30.04 "Hg

Humidity: 47%

Dew point: 55 °F

Location of RoyanLocation

Historic Weather in Royan — Graph

°F

Royan temperature yesterday

Maximum temperature yesterday: 73 °F (at 12:30 PM)
Minimum temperature yesterday: 57 °F (at 5:00 AM)
Average temperature yesterday: 66 °F

Past Weeks' High & Low Weather Summary

 TemperatureHumidityPressure
High97 °F (Jul 17, 6:00 PM)100% (Jul 26, 7:30 AM)30.18 "Hg (Jul 26, 7:30 AM)
Low57 °F (Jul 29, 5:00 AM)28% (Jul 17, 6:00 PM)29.74 "Hg (Jul 18, 8:00 PM)
Average72 °F70%29.99 "Hg
* Reported Jul 15 12:00 Noon — Jul 30 12:30 PM, Royan, Weather by CustomWeather, © 2014

Note: Actual official high and low records may vary slightly from our data, if they occured in-between our weather recording intervals... More about our weather records

Advertising

Royan weather history for previous 24 hours

 ConditionsComfort  
Time TempWeatherWind HumidityBarometerVisibility
12:30 PM
Jul 30
77 °FClear.7 mph47%30.04 "HgN/A
12:00 PM75 °FClear.7 mph47%30.04 "HgN/A
11:30 AM75 °FClear.6 mph50%30.04 "HgN/A
11:00 AM73 °FClear.5 mph53%30.04 "HgN/A
10:30 AM72 °FClear.2 mph61%30.04 "HgN/A
10:00 AM70 °FClear.1 mph64%30.04 "HgN/A
9:30 AM70 °FClear.3 mph64%30.04 "HgN/A
9:00 AM68 °FClear.5 mph69%30.04 "HgN/A
8:30 AM66 °FClear.3 mph68%30.04 "HgN/A
8:00 AM66 °FClear.5 mph73%30.04 "HgN/A
7:30 AM64 °FClear.2 mph78%30.04 "HgN/A
7:00 AM63 °FClear.3 mph83%30.01 "HgN/A
6:30 AM63 °FClear.3 mph83%30.01 "HgN/A
6:00 AM64 °FClear.5 mph78%30.01 "HgN/A
5:30 AM66 °FClear.3 mph73%30.01 "HgN/A
5:00 AM66 °FClear.5 mph78%30.01 "HgN/A
4:30 AM66 °FClear.6 mph78%30.04 "HgN/A
4:00 AM66 °FClear.5 mph78%30.04 "HgN/A
3:30 AM66 °FClear.6 mph78%30.04 "HgN/A
3:00 AM66 °FClear.5 mph83%30.04 "HgN/A
2:30 AM68 °FClear.5 mph78%30.04 "HgN/A
2:00 AM68 °FClear.6 mph78%30.04 "HgN/A
1:30 AM68 °FOvercast.6 mph78%30.04 "HgN/A
1:00 AM68 °FClear.6 mph78%30.04 "HgN/A
12:30 AM68 °FClear.7 mph73%30.04 "HgN/A
12:00 AM68 °FOvercast.6 mph73%30.04 "HgN/A
11:30 PM
Jul 29
68 °FClear.8 mph73%30.04 "HgN/A
11:00 PM68 °FMostly cloudy.7 mph73%30.04 "HgN/A
10:30 PM68 °FCloudy.7 mph73%30.04 "HgN/A
10:00 PM68 °FMore clouds than sun.9 mph78%30.04 "HgN/A
9:30 PM70 °FClear.10 mph73%30.01 "HgN/A
9:00 PM70 °FClear.10 mph73%30.01 "HgN/A
8:30 PM70 °FMostly cloudy.12 mph69%30.01 "HgN/A
8:00 PM72 °FCloudy.12 mph65%30.01 "HgN/A
7:30 PM72 °FMostly cloudy.13 mph65%30.01 "HgN/A
7:00 PM70 °FBroken clouds.10 mph69%30.01 "HgN/A
6:30 PM70 °FBroken clouds.14 mph69%30.01 "HgN/A
6:00 PM72 °FBroken clouds.12 mph61%30.01 "HgN/A
5:30 PM72 °FCloudy.13 mph65%30.01 "HgN/A
5:00 PM70 °FOvercast.13 mph69%30.01 "HgN/A
4:30 PM70 °FOvercast.12 mph64%30.01 "HgN/A
4:00 PM70 °FMostly cloudy.13 mph60%30.01 "HgN/A
3:30 PM72 °FMostly cloudy.14 mph57%30.01 "HgN/A
3:00 PM72 °FClear.12 mph53%30.01 "HgN/A
2:30 PM72 °FClear.13 mph53%30.01 "HgN/A
2:00 PM72 °FMostly cloudy.12 mph53%30.01 "HgN/A
1:30 PM72 °FCloudy.13 mph53%30.04 "HgN/A
1:00 PM72 °FCloudy.12 mph53%30.04 "HgN/A
Weather by CustomWeather, © 2014

See weather overviewHow to use our weather pages